Location: Erdweis
(48.5167°N, 15.3500°E)
Time: 01:17:57
(UTC+00:00)

USA 234 - Pass Details

Date: 18 September 2020
Orbit: 1102 x 1106 km, 123.0° (Epoch: 16 October)

Event Time Altitude Azimuth Distance (km) Brightness Sun altitude
Rises 21:58:26 0° 65° (ENE) 3,924 6.2 -38.7°
Reaches altitude 10° 22:01:01 10° 60° (ENE) 2,966 5.6 -38.8°
Enters shadow 22:03:22 23° 49° (NE) 2,167 4.9 -38.9°
Exits shadow 22:06:55 45° 357° (N) 1,468 4.1 -39.1°
Maximum altitude 22:07:09 45° 350° (N) 1,465 4.1 -39.1°
Drops below altitude 10° 22:13:18 10° 281° (W) 2,965 5.7 -39.4°
Sets 22:15:53 0° 275° (W) 3,923 6.3 -39.4°
